Temp
-7 -6 -6 -6 -6 -7 -7 -8 -9 -8 -9 -9 -9 -10 -12 -12 -13 -13 -13 -13 -13 -12 -12 -12 -11 -10 -10 -10 -10 -9 -8 -8 -7 -7 -7 -7 -7 -8 -8 -8 -8 -8 -7 -7 -7
-7 -6 -7 -7 -7 -8 -8 -9 -9 -9 -10 -10 -11 -13 -14 -13 -13 -13 -14 -14 -14 -13 -13 -12 -12 -12 -11 -11 -10 -10 -9 -8 -8 -8 -8 -7 -8 -8 -8 -8 -9 -8 -8 -8 -7
-7 -7 -7 -7 -8 -9 -9 -9 -10 -10 -11 -11 -13 -14 -14 -14 -14 -14 -14 -14 -14 -14 -14 -14 -13 -12 -12 -11 -11 -10 -9 -9 -9 -8 -8 -7 -8 -7 -7 -8 -9 -9 -8 -8 -8
-7 -7 -7 -8 -9 -9 -10 -10 -10 -11 -11 -13 -14 -15 -14 -14 -15 -15 -15 -15 -15 -15 -16 -16 -15 -13 -13 -12 -11 -11 -10 -9 -9 -9 -8 -8 -8 -8 -8 -8 -9 -9 -8 -8 -8
-8 -8 -8 -8 -9 -10 -10 -10 -11 -12 -13 -14 -15 -15 -15 -15 -15 -15 -16 -16 -16 -16 -17 -17 -17 -15 -13 -13 -12 -11 -11 -10 -10 -10 -9 -9 -8 -8 -8 -8 -8 -9 -9 -8 -7
-8 -8 -9 -9 -10 -10 -10 -11 -12 -13 -14 -15 -15 -15 -15 -15 -15 -15 -15 -16 -17 -17 -17 -18 -18 -17 -15 -13 -12 -12 -11 -11 -11 -10 -10 -9 -9 -8 -8 -8 -8 -9 -9 -9 -8
-9 -9 -9 -10 -10 -11 -11 -11 -13 -13 -15 -15 -15 -15 -15 -15 -15 -15 -16 -17 -17 -17 -17 -18 -18 -18 -16 -14 -13 -12 -12 -11 -11 -11 -10 -9 -9 -7 -9 -9 -8 -9 -9 -9 -8
-9 -9 -10 -10 -11 -11 -11 -12 -13 -13 -15 -15 -14 -15 -15 -15 -15 -15 -16 -17 -17 -17 -17 -17 -17 -18 -17 -16 -14 -13 -12 -12 -11 -11 -11 -10 -8 -9 -10 -9 -9 -9 -9 -9 -8
-10 -10 -10 -11 -11 -11 -11 -12 -13 -13 -15 -15 -15 -15 -15 -15 -15 -16 -16 -17 -17 -17 -17 -17 -17 -17 -17 -17 -15 -14 -13 -12 -12 -11 -11 -10 -9 -9 -10 -9 -9 -9 -9 -9 -9
-10 -10 -11 -11 -11 -11 -12 -13 -13 -14 -15 -15 -15 -15 -16 -16 -16 -16 -16 -17 -18 -18 -18 -18 -17 -17 -17 -17 -17 -15 -14 -13 -12 -12 -11 -11 -10 -10 -10 -9 -10 -10 -9 -8 -9
-10 -10 -11 -11 -12 -12 -12 -13 -14 -14 -15 -15 -16 -16 -16 -16 -16 -17 -17 -17 -18 -18 -18 -18 -17 -17 -17 -17 -17 -16 -16 -14 -13 -12 -12 -11 -10 -10 -11 -10 -10 -10 -9 -9 -9
-11 -11 -11 -12 -12 -12 -12 -13 -14 -14 -15 -15 -16 -16 -17 -17 -17 -17 -17 -18 -19 -19 -19 -18 -18 -18 -17 -17 -17 -16 -16 -16 -15 -13 -12 -11 -11 -10 -11 -11 -10 -10 -9 -9 -9
-11 -11 -12 -12 -12 -12 -13 -14 -14 -14 -15 -16 -16 -16 -17 -17 -17 -17 -17 -19 -20 -20 -20 -19 -19 -19 -18 -18 -17 -17 -16 -16 -16 -15 -12 -12 -11 -10 -11 -11 -11 -10 -10 -9 -10
-12 -12 -12 -12 -12 -13 -13 -14 -14 -14 -15 -16 -16 -16 -16 -17 -17 -17 -17 -20 -20 -20 -20 -20 -20 -19 -19 -18 -18 -17 -17 -16 -16 -16 -14 -12 -11 -11 -11 -11 -11 -9 -9 -9 -9
-12 -12 -12 -13 -13 -13 -13 -14 -14 -15 -16 -17 -17 -17 -17 -17 -17 -18 -18 -19 -20 -20 -20 -20 -20 -20 -19 -19 -18 -18 -17 -17 -17 -16 -15 -13 -11 -10 -11 -11 -11 -9 -9 -9 -10
-12 -13 -13 -13 -13 -13 -13 -14 -14 -15 -16 -17 -18 -18 -18 -18 -18 -18 -19 -19 -20 -20 -20 -20 -20 -20 -20 -20 -19 -19 -18 -18 -17 -17 -16 -14 -12 -11 -11 -10 -10 -10 -9 -9 -10
-13 -13 -13 -13 -13 -13 -14 -14 -15 -15 -16 -16 -18 -18 -18 -18 -18 -19 -19 -19 -19 -20 -20 -21 -21 -21 -20 -20 -20 -20 -20 -19 -19 -18 -16 -15 -13 -11 -11 -10 -10 -9 -9 -9 -10
-13 -13 -13 -13 -13 -13 -13 -14 -15 -16 -16 -17 -17 -18 -18 -18 -19 -19 -19 -20 -20 -20 -21 -21 -21 -21 -21 -21 -20 -20 -20 -20 -19 -17 -16 -16 -13 -13 -11 -10 -10 -11 -10 -10 -9
-13 -13 -13 -13 -14 -14 -14 -14 -15 -16 -16 -16 -17 -17 -18 -18 -18 -19 -20 -20 -20 -21 -21 -21 -22 -22 -21 -21 -21 -21 -20 -20 -20 -18 -17 -16 -12 -13 -11 -10 -11 -12 -11 -10 -10
-13 -13 -13 -14 -14 -14 -14 -15 -15 -16 -17 -17 -17 -18 -18 -18 -19 -19 -20 -21 -21 -21 -22 -22 -22 -22 -22 -21 -21 -21 -22 -21 -21 -19 -18 -16 -14 -13 -11 -11 -11 -13 -11 -11 -10
-13 -13 -13 -14 -14 -14 -14 -15 -16 -16 -17 -16 -17 -18 -18 -18 -19 -19 -19 -20 -21 -20 -21 -22 -22 -22 -21 -21 -22 -22 -21 -21 -21 -19 -17 -16 -14 -13 -12 -11 -11 -12 -12 -11 -10
-13 -13 -14 -14 -14 -14 -14 -14 -15 -16 -17 -17 -17 -18 -18 -18 -18 -19 -19 -19 -21 -20 -21 -21 -21 -21 -22 -22 -22 -22 -22 -21 -20 -19 -17 -16 -14 -14 -12 -13 -12 -12 -11 -11 -11
-13 -13 -14 -14 -14 -14 -14 -15 -15 -16 -17 -17 -17 -17 -17 -18 -17 -18 -19 -19 -20 -20 -20 -21 -22 -22 -21 -21 -21 -22 -21 -21 -19 -18 -16 -17 -15 -14 -13 -14 -13 -12 -12 -12 -10
-13 -13 -13 -14 -14 -14 -14 -14 -15 -16 -16 -17 -17 -18 -17 -17 -17 -17 -18 -19 -19 -20 -20 -21 -21 -21 -21 -21 -21 -21 -20 -20 -19 -17 -18 -17 -16 -14 -13 -14 -14 -14 -12 -12 -11
-13 -14 -14 -14 -14 -15 -15 -14 -15 -15 -16 -16 -17 -17 -17 -17 -17 -17 -17 -18 -19 -19 -21 -21 -21 -21 -21 -20 -21 -21 -19 -18 -17 -17 -17 -16 -16 -15 -14 -14 -14 -14 -14 -12 -12
-14 -14 -14 -15 -14 -15 -15 -15 -14 -16 -15 -16 -16 -18 -17 -17 -17 -17 -17 -18 -18 -19 -20 -20 -19 -20 -19 -19 -19 -19 -20 -18 -17 -17 -17 -17 -16 -15 -15 -14 -14 -13 -13 -13 -12
-14 -14 -15 -15 -15 -15 -15 -15 -15 -15 -16 -16 -16 -17 -17 -17 -18 -17 -18 -18 -18 -19 -19 -19 -19 -19 -19 -19 -18 -18 -18 -17 -17 -17 -16 -16 -15 -15 -15 -14 -13 -14 -14 -13 -13
Height
5831 5826 5821 5815 5808 5801 5795 5788 5782 5774 5766 5756 5747 5738 5731 5728 5726 5724 5722 5720 5719 5720 5725 5733 5740 5746 5752 5759 5764 5770 5774 5782 5794 5806 5814 5820 5827 5833 5842 5847 5848 5858 5868 5872 5877
5826 5821 5814 5807 5801 5793 5786 5778 5770 5761 5751 5741 5730 5722 5720 5720 5719 5716 5713 5710 5708 5705 5704 5711 5722 5728 5735 5743 5750 5756 5763 5773 5786 5797 5805 5811 5818 5824 5833 5841 5846 5853 5864 5869 5873
5821 5815 5808 5800 5793 5784 5776 5768 5758 5748 5738 5726 5718 5715 5714 5713 5710 5708 5705 5702 5698 5695 5689 5690 5699 5711 5718 5727 5735 5746 5754 5763 5776 5785 5794 5801 5807 5816 5824 5833 5842 5847 5857 5864 5870
5816 5809 5801 5793 5785 5776 5767 5758 5747 5737 5727 5717 5713 5711 5708 5705 5704 5700 5696 5693 5690 5685 5680 5676 5681 5691 5703 5712 5721 5734 5743 5750 5763 5774 5783 5791 5799 5807 5815 5828 5834 5841 5850 5858 5865
5811 5803 5795 5786 5778 5768 5759 5749 5738 5728 5718 5712 5709 5706 5703 5699 5695 5691 5686 5684 5681 5678 5673 5669 5669 5676 5685 5697 5708 5720 5730 5738 5751 5763 5773 5782 5789 5799 5810 5818 5826 5835 5844 5851 5858
5806 5798 5789 5780 5770 5760 5750 5741 5730 5721 5712 5707 5704 5700 5696 5692 5687 5682 5677 5674 5673 5671 5669 5666 5664 5667 5674 5685 5695 5707 5716 5726 5739 5750 5762 5772 5780 5789 5801 5809 5817 5827 5838 5845 5853
5801 5792 5784 5774 5764 5753 5743 5734 5724 5714 5707 5703 5699 5693 5689 5686 5680 5675 5670 5666 5665 5664 5663 5662 5662 5663 5667 5672 5683 5696 5705 5715 5728 5740 5750 5760 5771 5786 5792 5798 5808 5818 5830 5840 5847
5797 5788 5779 5770 5759 5749 5738 5727 5718 5709 5702 5698 5692 5686 5682 5679 5674 5669 5665 5662 5660 5658 5657 5658 5659 5661 5662 5668 5676 5685 5694 5705 5718 5729 5743 5752 5770 5769 5781 5787 5800 5809 5821 5832 5840
5793 5784 5775 5765 5755 5744 5733 5722 5713 5704 5697 5692 5687 5682 5678 5674 5669 5665 5660 5656 5653 5652 5651 5653 5655 5657 5660 5663 5668 5674 5683 5694 5707 5719 5732 5745 5756 5763 5771 5780 5792 5802 5813 5822 5833
5789 5780 5770 5761 5751 5740 5729 5716 5706 5698 5691 5687 5682 5679 5674 5670 5664 5660 5654 5649 5647 5645 5645 5647 5649 5651 5655 5658 5662 5668 5676 5686 5697 5710 5722 5733 5743 5751 5763 5772 5781 5794 5806 5815 5827
5784 5776 5766 5756 5746 5736 5724 5713 5706 5695 5687 5683 5678 5673 5668 5664 5658 5654 5648 5642 5640 5639 5638 5640 5643 5645 5647 5651 5657 5663 5669 5678 5687 5698 5712 5721 5730 5743 5754 5761 5771 5785 5800 5810 5821
5780 5771 5761 5752 5741 5730 5719 5709 5700 5693 5685 5678 5673 5668 5662 5658 5652 5647 5640 5633 5629 5627 5628 5632 5634 5637 5640 5644 5648 5654 5661 5669 5676 5684 5699 5710 5721 5735 5742 5753 5766 5777 5792 5804 5816
5776 5768 5758 5748 5737 5726 5715 5706 5698 5689 5681 5675 5670 5664 5658 5653 5647 5640 5633 5625 5622 5622 5622 5624 5627 5630 5634 5638 5643 5648 5654 5662 5669 5676 5689 5699 5709 5726 5739 5744 5757 5768 5784 5798 5811
5774 5765 5755 5746 5736 5724 5713 5703 5694 5685 5678 5673 5667 5660 5654 5648 5642 5636 5628 5621 5618 5617 5618 5620 5622 5625 5629 5632 5637 5642 5647 5654 5662 5668 5675 5688 5703 5718 5730 5739 5750 5763 5778 5793 5804
5771 5762 5752 5740 5731 5721 5710 5700 5690 5681 5674 5668 5662 5656 5650 5645 5639 5632 5626 5618 5615 5614 5615 5617 5617 5620 5622 5625 5630 5634 5639 5646 5653 5660 5667 5679 5691 5710 5719 5726 5741 5759 5774 5788 5799
5767 5759 5750 5740 5729 5719 5708 5697 5688 5681 5672 5664 5657 5652 5648 5641 5635 5629 5623 5618 5612 5610 5610 5612 5613 5615 5616 5619 5623 5628 5633 5638 5644 5651 5658 5670 5684 5696 5710 5728 5740 5756 5770 5784 5793
5765 5755 5746 5736 5727 5716 5706 5695 5686 5678 5670 5663 5655 5648 5644 5637 5631 5626 5621 5616 5611 5607 5605 5605 5605 5607 5611 5614 5618 5623 5627 5630 5636 5642 5656 5664 5669 5694 5718 5726 5736 5752 5767 5779 5789
5762 5753 5743 5733 5723 5714 5704 5693 5683 5674 5666 5658 5650 5644 5640 5634 5628 5622 5616 5613 5608 5604 5600 5598 5598 5599 5603 5607 5611 5616 5620 5625 5630 5640 5655 5655 5662 5686 5711 5722 5732 5745 5762 5773 5780
5760 5751 5741 5731 5722 5712 5702 5690 5680 5671 5663 5654 5648 5642 5637 5630 5625 5619 5613 5608 5604 5599 5597 5594 5594 5596 5597 5601 5605 5610 5615 5620 5625 5634 5639 5649 5669 5686 5699 5711 5721 5734 5750 5762 5775
5757 5749 5741 5730 5719 5710 5699 5689 5678 5668 5659 5650 5644 5639 5632 5627 5621 5616 5609 5604 5600 5596 5593 5591 5589 5589 5591 5595 5598 5603 5603 5610 5616 5626 5634 5647 5656 5674 5688 5699 5714 5728 5744 5757 5768
5754 5746 5738 5729 5719 5709 5698 5687 5676 5667 5657 5650 5641 5636 5631 5623 5618 5612 5607 5602 5597 5593 5590 5588 5587 5588 5589 5590 5591 5593 5596 5604 5612 5621 5633 5642 5653 5667 5683 5697 5711 5727 5741 5754 5766
5752 5744 5735 5727 5718 5705 5696 5685 5676 5667 5657 5647 5641 5635 5628 5621 5615 5608 5604 5599 5595 5592 5589 5586 5585 5584 5584 5584 5583 5585 5589 5598 5609 5621 5630 5638 5656 5664 5679 5696 5712 5724 5737 5749 5761
5750 5742 5732 5724 5714 5705 5694 5685 5674 5666 5659 5649 5639 5632 5627 5620 5612 5604 5600 5598 5594 5591 5587 5585 5585 5582 5580 5579 5577 5580 5585 5594 5605 5615 5630 5636 5649 5663 5677 5690 5706 5720 5731 5742 5753
5745 5736 5728 5720 5711 5702 5693 5685 5674 5663 5656 5649 5639 5630 5626 5620 5614 5606 5600 5597 5594 5591 5586 5584 5583 5581 5578 5580 5581 5583 5588 5593 5602 5614 5625 5636 5648 5662 5675 5687 5700 5713 5728 5740 5751
5741 5734 5724 5716 5709 5700 5691 5681 5674 5664 5656 5647 5641 5629 5623 5617 5611 5605 5601 5596 5593 5590 5586 5586 5584 5582 5581 5582 5584 5584 5587 5595 5605 5614 5625 5631 5641 5664 5677 5688 5701 5712 5724 5737 5749
5738 5730 5723 5714 5707 5699 5690 5681 5671 5663 5652 5646 5639 5630 5624 5617 5612 5607 5602 5597 5593 5591 5587 5586 5585 5583 5585 5583 5587 5590 5593 5596 5606 5611 5622 5630 5640 5653 5671 5682 5696 5710 5721 5733 5745
5736 5730 5721 5711 5704 5696 5688 5678 5670 5661 5653 5643 5637 5632 5626 5620 5614 5609 5603 5599 5596 5592 5590 5588 5587 5587 5586 5586 5590 5597 5599 5601 5607 5614 5626 5635 5649 5659 5671 5685 5698 5709 5721 5733 5743
Wind_Speed
33 37 41 45 45 45 46 44 44 47 50 51 53 56 53 38 28 28 31 33 37 49 63 65 64 66 66 63 60 61 64 63 57 52 47 50 44 50 47 43 44 38 34 32 27
35 41 45 48 48 47 45 45 49 50 48 52 51 39 26 24 27 29 31 30 31 33 46 67 66 65 66 67 65 63 64 64 58 54 50 49 49 47 51 47 42 38 35 30 24
40 43 48 50 50 48 47 48 51 49 51 46 34 25 24 27 31 32 36 32 32 34 32 46 69 68 64 66 68 65 63 62 59 56 54 52 50 50 50 52 44 39 38 37 26
42 46 50 52 51 49 49 51 51 49 47 33 24 24 28 32 36 35 36 36 33 34 31 31 54 66 66 64 66 66 64 62 59 58 56 55 52 52 49 52 49 42 38 39 38
44 48 52 53 52 50 51 51 49 47 39 26 23 26 31 38 41 39 38 37 32 28 28 22 34 57 66 65 66 65 66 63 57 56 57 55 55 49 49 50 53 46 41 39 42
45 49 52 54 52 52 53 52 46 44 32 26 28 30 35 36 30 29 29 35 30 27 21 18 19 40 59 64 66 66 66 66 59 55 55 58 55 54 50 50 54 52 43 36 37
46 51 54 53 52 54 55 53 44 41 31 28 29 30 26 27 26 27 26 24 25 26 23 16 13 24 44 58 62 63 64 65 62 55 56 59 58 56 50 52 52 57 50 44 36
48 52 53 52 52 54 55 52 44 41 32 29 34 28 23 24 24 22 27 22 23 24 26 22 17 19 27 42 55 60 64 63 62 56 53 57 58 58 50 55 54 53 57 52 45
49 52 53 52 52 54 54 51 44 42 31 29 31 25 20 22 22 23 28 26 22 25 26 25 23 22 23 29 41 53 61 61 59 59 54 54 59 57 51 57 53 54 58 55 51
50 52 53 53 52 55 54 50 46 42 30 30 25 22 21 19 22 27 32 31 21 24 22 23 27 27 27 27 32 40 50 54 58 58 57 57 58 57 54 55 54 54 55 59 51
50 54 55 54 54 56 56 50 45 39 28 23 20 22 24 28 32 29 33 36 31 28 27 26 24 26 29 31 30 32 37 45 54 56 56 60 60 56 53 55 57 54 53 58 52
51 55 56 56 56 58 57 50 44 37 27 22 24 28 27 26 28 31 38 34 21 23 23 25 28 27 29 30 32 33 35 36 43 54 59 60 62 56 59 57 56 56 54 57 57
51 54 57 56 57 58 57 50 43 39 29 24 24 27 27 25 27 30 33 31 19 17 18 20 20 22 24 27 31 33 35 36 36 43 56 61 64 61 58 59 58 60 56 54 57
49 53 56 57 56 58 57 52 44 40 31 26 25 27 27 24 25 27 31 28 20 15 13 13 16 17 17 18 24 31 35 36 36 39 49 61 63 62 60 61 58 60 58 53 55
49 51 54 58 57 58 59 53 46 41 32 30 26 25 27 26 25 27 27 27 17 16 19 16 20 18 16 20 25 27 36 38 38 39 43 58 65 64 62 65 60 59 57 53 53
48 51 53 57 57 56 59 54 48 42 35 27 26 27 24 27 26 21 19 22 19 17 12 12 16 21 19 20 24 27 32 38 40 42 43 53 65 67 65 64 61 57 56 54 54
48 50 54 59 55 54 57 55 49 42 39 34 27 26 26 28 27 19 17 15 15 18 14 17 16 21 22 23 25 25 19 31 39 43 42 43 64 65 58 62 62 56 54 55 52
46 50 55 58 51 53 56 56 49 44 41 36 29 27 26 29 26 19 17 12 10 13 15 14 16 22 26 26 28 29 29 25 40 46 39 42 63 60 61 62 59 53 51 53 53
46 49 54 51 51 54 56 55 51 46 43 44 28 27 27 28 25 22 14 13 7 12 13 15 14 22 22 26 26 31 34 31 33 44 46 42 58 59 66 66 64 61 56 54 52
45 47 48 49 51 54 56 54 51 47 45 44 29 28 29 27 26 33 22 11 8 10 8 7 7 10 17 27 31 33 29 31 36 41 42 42 54 66 70 71 67 64 58 54 53
45 46 48 48 50 52 56 55 50 47 46 44 32 29 29 27 28 29 29 18 11 10 5 2 2 5 9 12 15 25 33 35 38 40 42 41 55 73 74 71 67 63 59 58 54
42 46 48 48 48 52 55 58 53 45 43 44 36 31 29 28 27 29 24 21 7 5 6 2 2 3 13 22 21 25 28 35 39 39 42 37 61 70 72 68 65 62 60 58 56
42 44 45 47 50 49 54 56 54 48 40 40 41 33 29 25 32 34 23 18 14 11 10 6 4 7 7 5 15 25 32 41 40 41 39 36 59 67 72 66 63 63 62 60 57
44 47 47 49 50 49 51 53 53 50 44 37 39 33 29 26 26 34 31 17 18 17 9 11 9 7 12 3 10 26 38 43 39 39 41 36 52 68 69 69 64 60 61 60 56
44 44 47 49 49 48 50 52 52 51 46 42 36 32 28 27 29 31 25 20 14 16 5 7 8 9 1 10 12 30 45 41 38 38 43 43 53 61 58 68 62 59 54 54 51
41 44 45 49 48 46 49 51 53 48 50 44 35 27 25 27 27 24 25 19 13 16 13 9 7 7 10 2 16 25 38 34 30 44 34 35 51 65 51 65 67 62 57 52 49
41 42 45 49 46 45 48 51 51 51 45 45 37 31 21 21 22 22 20 11 8 16 14 13 13 6 11 14 23 25 14 26 35 48 29 32 52 57 54 53 62 60 55 49 45
Wind_Direction
341 339 338 338 338 334 330 324 321 318 315 309 305 295 293 294 290 292 290 284 276 261 248 240 239 237 234 233 232 229 229 229 226 223 220 220 219 216 213 214 225 222 212 218 219
341 340 339 341 340 337 331 328 328 325 319 317 305 302 297 299 303 307 306 302 295 291 259 236 234 235 233 232 230 229 228 228 225 223 221 218 217 217 212 211 221 224 212 204 198
342 341 343 344 342 338 335 334 333 329 329 317 311 302 305 309 312 310 308 304 297 300 290 247 228 229 231 229 229 229 228 227 225 223 219 217 216 216 213 211 212 220 213 205 192
343 345 346 346 344 341 338 339 337 335 335 321 311 308 309 312 310 306 302 302 299 300 314 264 229 222 226 225 227 227 227 226 224 221 219 217 217 214 213 211 212 215 215 213 203
345 347 348 347 346 342 342 342 340 339 336 326 313 305 305 307 308 304 297 292 293 292 305 297 241 219 217 221 223 224 225 227 223 220 219 217 218 215 212 210 211 211 214 211 211
347 348 350 348 347 344 345 345 343 341 335 329 320 313 307 308 312 312 304 284 285 281 284 297 261 220 216 217 220 220 222 223 222 220 217 216 217 215 212 209 209 208 210 201 198
350 351 350 350 348 347 347 347 347 342 331 326 324 318 319 320 323 320 318 286 275 267 268 264 258 224 215 217 217 219 221 222 221 218 215 214 214 215 215 212 208 208 205 194 196
352 352 352 352 349 349 349 349 348 342 331 328 333 329 322 326 325 322 316 303 277 262 261 253 237 230 216 217 218 219 220 220 220 218 215 213 207 214 211 218 208 206 203 201 205
353 353 353 352 350 350 350 351 349 343 333 333 333 327 320 322 319 317 309 303 287 272 256 248 236 228 220 216 213 218 219 219 218 217 214 212 207 214 208 215 213 205 201 206 200
352 354 354 353 352 351 353 354 349 347 340 335 333 334 322 320 315 314 308 302 281 262 253 245 236 233 229 222 218 215 218 220 220 219 215 212 208 211 208 209 216 208 199 206 199
352 355 355 353 353 352 356 356 349 347 346 339 345 339 320 312 310 312 309 304 292 274 258 247 242 231 230 232 227 222 218 219 220 220 216 214 210 207 208 209 212 211 202 203 200
353 355 355 353 353 353 357 357 349 351 347 351 345 333 323 323 317 316 313 310 300 261 246 245 241 236 230 227 230 228 221 217 217 218 215 213 213 207 207 209 207 210 205 200 199
351 354 355 354 354 354 357 358 350 353 348 349 341 337 335 332 328 328 328 321 306 270 254 243 239 228 227 225 227 228 227 220 217 216 216 214 213 209 207 209 204 208 205 197 199
350 353 354 354 354 354 357 357 354 354 351 346 342 342 341 342 339 347 340 329 317 282 259 237 243 233 232 241 233 226 226 227 219 215 213 212 213 209 208 208 204 206 206 198 197
348 352 353 353 352 354 356 357 356 356 353 342 342 345 344 348 349 346 349 343 326 295 281 272 252 247 254 260 250 237 227 223 219 214 213 210 212 205 203 207 205 203 204 199 194
348 349 351 352 351 353 355 356 358 357 353 344 340 346 347 341 346 348 353 6 335 299 284 266 254 248 245 250 251 248 234 225 220 214 214 209 209 206 201 206 209 202 202 203 195
348 349 350 350 352 353 355 356 358 358 353 348 346 345 347 351 352 351 340 351 340 310 285 259 263 258 245 232 236 238 237 231 222 216 212 211 208 202 195 205 210 205 200 201 198
349 350 350 352 355 354 355 357 357 356 355 353 344 347 342 344 353 353 339 335 351 323 306 283 250 240 229 226 227 232 234 235 224 217 213 215 205 192 191 200 205 205 199 201 202
349 352 352 354 354 355 355 358 358 356 356 353 352 351 345 341 345 339 339 329 332 335 287 293 254 251 241 229 229 234 237 237 224 211 211 215 197 187 188 198 199 201 196 199 201
348 352 353 352 353 354 356 358 358 356 355 353 353 353 348 336 333 333 327 336 345 351 317 299 286 253 230 227 231 224 219 214 209 206 212 205 197 179 186 195 197 195 195 194 197
346 349 353 354 353 354 356 357 358 358 352 355 354 349 344 336 335 334 328 338 3 351 350 351 348 307 254 236 225 225 221 209 196 197 198 206 186 178 187 196 198 195 193 193 198
342 344 348 351 352 352 354 356 358 359 354 353 350 345 350 347 336 328 328 330 321 7 317 282 299 284 263 245 225 233 214 199 190 187 196 203 179 179 185 194 198 196 195 198 203
343 343 345 350 349 351 352 355 354 356 358 354 350 345 352 345 343 344 332 331 328 337 281 318 313 303 304 251 221 202 183 176 180 181 191 198 183 179 185 188 195 199 195 198 202
344 344 344 348 348 351 351 353 353 353 355 358 354 337 345 349 349 346 341 320 331 321 330 284 316 343 330 215 191 175 172 168 170 177 182 186 184 179 185 189 191 193 199 199 204
344 345 343 344 348 349 350 350 353 351 354 356 -0 342 345 351 356 354 346 342 315 353 304 295 305 349 180 173 205 190 175 165 174 177 178 179 181 182 186 187 193 195 202 204 205
343 344 342 342 346 346 348 348 350 352 352 356 359 354 354 357 358 354 348 340 319 354 29 52 30 39 174 171 208 191 192 167 165 183 166 176 180 180 178 187 196 200 202 205 210
341 342 341 338 344 345 346 346 348 352 351 351 357 3 349 358 9 355 350 358 29 356 47 28 66 25 211 187 176 174 154 169 178 173 158 176 177 181 180 188 196 201 203 206 211